Year,Month,Day,Hour,Minute,Value (Times are PST for temperature in C)
2018,07,14,00,00,13.40
2018,07,14,00,01,13.30
2018,07,14,00,02,13.30
2018,07,14,00,03,13.30
2018,07,14,00,04,13.30
2018,07,14,00,05,13.30
2018,07,14,00,06,13.30
2018,07,14,00,07,13.20
2018,07,14,00,08,13.20
2018,07,14,00,09,13.20
2018,07,14,00,10,13.20
2018,07,14,00,11,13.20
2018,07,14,00,12,13.20
2018,07,14,00,13,13.20
2018,07,14,00,14,13.20
2018,07,14,00,15,13.20
2018,07,14,00,16,13.10
2018,07,14,00,17,13.10
2018,07,14,00,18,13.10
2018,07,14,00,19,13.10
2018,07,14,00,20,13.10
2018,07,14,00,21,13.10
2018,07,14,00,22,13.10
2018,07,14,00,23,13.10
2018,07,14,00,24,13.10
2018,07,14,00,25,13.10
2018,07,14,00,26,13.00
2018,07,14,00,27,13.00
2018,07,14,00,28,13.00
2018,07,14,00,29,13.00
2018,07,14,00,30,13.00
2018,07,14,00,31,13.00
2018,07,14,00,32,13.00
2018,07,14,00,33,13.00
2018,07,14,00,34,13.00
2018,07,14,00,35,13.00
2018,07,14,00,36,13.00
2018,07,14,00,37,13.00
2018,07,14,00,38,13.00
2018,07,14,00,39,13.00
2018,07,14,00,40,13.00
2018,07,14,00,41,13.00
2018,07,14,00,42,13.00
2018,07,14,00,43,13.00
2018,07,14,00,44,13.00
2018,07,14,00,45,13.00
2018,07,14,00,46,13.00
2018,07,14,00,47,13.00
2018,07,14,00,48,13.00
2018,07,14,00,49,13.00
2018,07,14,00,50,13.00
2018,07,14,00,51,12.90
2018,07,14,00,52,12.90
2018,07,14,00,53,12.90
2018,07,14,00,54,12.90
2018,07,14,00,55,12.90
2018,07,14,00,56,12.90
2018,07,14,00,57,12.90
2018,07,14,00,58,12.80
2018,07,14,00,59,12.80
2018,07,14,01,00,12.80
2018,07,14,01,01,12.80
2018,07,14,01,02,12.80
2018,07,14,01,03,12.80
2018,07,14,01,04,12.70
2018,07,14,01,05,12.70
2018,07,14,01,06,12.70
2018,07,14,01,07,12.70
2018,07,14,01,08,12.70
2018,07,14,01,09,12.60
2018,07,14,01,10,12.60
2018,07,14,01,11,12.60
2018,07,14,01,12,12.60
2018,07,14,01,13,12.60
2018,07,14,01,14,12.60
2018,07,14,01,15,12.60
2018,07,14,01,16,12.60
2018,07,14,01,17,12.60
2018,07,14,01,18,12.60
2018,07,14,01,19,12.60
2018,07,14,01,20,12.60
2018,07,14,01,21,12.50
2018,07,14,01,22,12.50
2018,07,14,01,23,12.50
2018,07,14,01,24,12.50
2018,07,14,01,25,12.40
2018,07,14,01,26,12.40
2018,07,14,01,27,12.40
2018,07,14,01,28,12.40
2018,07,14,01,29,12.40
2018,07,14,01,30,12.30
2018,07,14,01,31,12.30
2018,07,14,01,32,12.30
2018,07,14,01,33,12.30
2018,07,14,01,34,12.30
2018,07,14,01,35,12.30
2018,07,14,01,36,12.30
2018,07,14,01,37,12.20
2018,07,14,01,38,12.20
2018,07,14,01,39,12.20
2018,07,14,01,40,12.20
2018,07,14,01,41,12.20
2018,07,14,01,42,12.20
2018,07,14,01,43,12.20
2018,07,14,01,44,12.20
2018,07,14,01,45,12.20
2018,07,14,01,46,12.30
2018,07,14,01,47,12.30
2018,07,14,01,48,12.30
2018,07,14,01,49,12.30
2018,07,14,01,50,12.30
2018,07,14,01,51,12.30
2018,07,14,01,52,12.30
2018,07,14,01,53,12.30
2018,07,14,01,54,12.30
2018,07,14,01,55,12.30
2018,07,14,01,56,12.30
2018,07,14,01,57,12.30
2018,07,14,01,58,12.30
2018,07,14,01,59,12.30
2018,07,14,02,00,12.40
2018,07,14,02,01,12.40
2018,07,14,02,02,12.40
2018,07,14,02,03,12.40
2018,07,14,02,04,12.40
2018,07,14,02,05,12.40
2018,07,14,02,06,12.40
2018,07,14,02,07,12.40
2018,07,14,02,08,12.40
2018,07,14,02,09,12.50
2018,07,14,02,10,12.50
2018,07,14,02,11,12.50
2018,07,14,02,12,12.50
2018,07,14,02,13,12.60
2018,07,14,02,14,12.60
2018,07,14,02,15,12.60
2018,07,14,02,16,12.60
2018,07,14,02,17,12.60
2018,07,14,02,18,12.60
2018,07,14,02,19,12.60
2018,07,14,02,20,12.60
2018,07,14,02,21,12.60
2018,07,14,02,22,12.60
2018,07,14,02,23,12.60
2018,07,14,02,24,12.60
2018,07,14,02,25,12.60
2018,07,14,02,26,12.60
2018,07,14,02,27,12.60
2018,07,14,02,28,12.60
2018,07,14,02,29,12.60
2018,07,14,02,30,12.60
2018,07,14,02,31,12.60
2018,07,14,02,32,12.60
2018,07,14,02,33,12.60
2018,07,14,02,34,12.50
2018,07,14,02,35,12.50
2018,07,14,02,36,12.50
2018,07,14,02,37,12.50
2018,07,14,02,38,12.50
2018,07,14,02,39,12.50
2018,07,14,02,40,12.40
2018,07,14,02,41,12.40
2018,07,14,02,42,12.40
2018,07,14,02,43,12.40
2018,07,14,02,44,12.40
2018,07,14,02,45,12.40
2018,07,14,02,46,12.40
2018,07,14,02,47,12.40
2018,07,14,02,48,12.40
2018,07,14,02,49,12.40
2018,07,14,02,50,12.40
2018,07,14,02,51,12.50
2018,07,14,02,52,12.50
2018,07,14,02,53,12.50
2018,07,14,02,54,12.50
2018,07,14,02,55,12.50
2018,07,14,02,56,12.50
2018,07,14,02,57,12.50
2018,07,14,02,58,12.50
2018,07,14,02,59,12.50
2018,07,14,03,00,12.50
2018,07,14,03,01,12.50
2018,07,14,03,02,12.50
2018,07,14,03,03,12.50
2018,07,14,03,04,12.50
2018,07,14,03,05,12.50
2018,07,14,03,06,12.50
2018,07,14,03,07,12.50
2018,07,14,03,08,12.50
2018,07,14,03,09,12.50
2018,07,14,03,10,12.50
2018,07,14,03,11,12.50
2018,07,14,03,12,12.40
2018,07,14,03,13,12.40
2018,07,14,03,14,12.40
2018,07,14,03,15,12.40
2018,07,14,03,16,12.40
2018,07,14,03,17,12.40
2018,07,14,03,18,12.40
2018,07,14,03,19,12.40
2018,07,14,03,20,12.40
2018,07,14,03,21,12.40
2018,07,14,03,22,12.40
2018,07,14,03,23,12.40
2018,07,14,03,24,12.40
2018,07,14,03,25,12.40
2018,07,14,03,26,12.40
2018,07,14,03,27,12.40
2018,07,14,03,28,12.40
2018,07,14,03,29,12.40
2018,07,14,03,30,12.40
2018,07,14,03,31,12.40
2018,07,14,03,32,12.40
2018,07,14,03,33,12.40
2018,07,14,03,34,12.40
2018,07,14,03,35,12.30
2018,07,14,03,36,12.30
2018,07,14,03,37,12.30
2018,07,14,03,38,12.30
2018,07,14,03,39,12.30
2018,07,14,03,40,12.30
2018,07,14,03,41,12.30
2018,07,14,03,42,12.30
2018,07,14,03,43,12.30
2018,07,14,03,44,12.30
2018,07,14,03,45,12.30
2018,07,14,03,46,12.30
2018,07,14,03,47,12.30
2018,07,14,03,48,12.30
2018,07,14,03,49,12.30
2018,07,14,03,50,12.30
2018,07,14,03,51,12.30
2018,07,14,03,52,12.30
2018,07,14,03,53,12.30
2018,07,14,03,54,12.30
2018,07,14,03,55,12.30
2018,07,14,03,56,12.30
2018,07,14,03,57,12.30
2018,07,14,03,58,12.30
2018,07,14,03,59,12.30
2018,07,14,04,00,12.30
2018,07,14,04,01,12.20
2018,07,14,04,02,12.20
2018,07,14,04,03,12.20
2018,07,14,04,04,12.20
2018,07,14,04,05,12.20
2018,07,14,04,06,12.20
2018,07,14,04,07,12.20
2018,07,14,04,08,12.20
2018,07,14,04,09,12.20
2018,07,14,04,10,12.20
2018,07,14,04,11,12.20
2018,07,14,04,12,12.20
2018,07,14,04,13,12.20
2018,07,14,04,14,12.20
2018,07,14,04,15,12.20
2018,07,14,04,16,12.20
2018,07,14,04,17,12.10
2018,07,14,04,18,12.10
2018,07,14,04,19,12.10
2018,07,14,04,20,12.10
2018,07,14,04,21,12.10
2018,07,14,04,22,12.10
2018,07,14,04,23,12.10
2018,07,14,04,24,12.10
2018,07,14,04,25,12.10
2018,07,14,04,26,12.10
2018,07,14,04,27,12.00
2018,07,14,04,28,12.00
2018,07,14,04,29,12.00
2018,07,14,04,30,12.00
2018,07,14,04,31,12.00
2018,07,14,04,32,12.00
2018,07,14,04,33,12.00
2018,07,14,04,34,12.00
2018,07,14,04,35,11.90
2018,07,14,04,36,11.90
2018,07,14,04,37,11.90
2018,07,14,04,38,11.90
2018,07,14,04,39,11.90
2018,07,14,04,40,11.90
2018,07,14,04,41,11.90
2018,07,14,04,42,11.90
2018,07,14,04,43,11.90
2018,07,14,04,44,11.90
2018,07,14,04,45,11.90
2018,07,14,04,46,11.90
2018,07,14,04,47,11.90
2018,07,14,04,48,11.80
2018,07,14,04,49,11.80
2018,07,14,04,50,11.80
2018,07,14,04,51,11.80
2018,07,14,04,52,11.80
2018,07,14,04,53,11.80
2018,07,14,04,54,11.80
2018,07,14,04,55,11.80
2018,07,14,04,56,11.80
2018,07,14,04,57,11.80
2018,07,14,04,58,11.80
2018,07,14,04,59,11.70
2018,07,14,05,00,11.70
2018,07,14,05,01,11.70
2018,07,14,05,02,11.70
2018,07,14,05,03,11.70
2018,07,14,05,04,11.70
2018,07,14,05,05,11.70
2018,07,14,05,06,11.70
2018,07,14,05,07,11.70
2018,07,14,05,08,11.70
2018,07,14,05,09,11.70
2018,07,14,05,10,11.70
2018,07,14,05,11,11.70
2018,07,14,05,12,11.70
2018,07,14,05,13,11.70
2018,07,14,05,14,11.70
2018,07,14,05,15,11.70
2018,07,14,05,16,11.80
2018,07,14,05,17,11.80
2018,07,14,05,18,11.70
2018,07,14,05,19,11.70
2018,07,14,05,20,11.70
2018,07,14,05,21,11.70
2018,07,14,05,22,11.70
2018,07,14,05,23,11.70
2018,07,14,05,24,11.70
2018,07,14,05,25,11.70
2018,07,14,05,26,11.70
2018,07,14,05,27,11.70
2018,07,14,05,28,11.70
2018,07,14,05,29,11.70
2018,07,14,05,30,11.70
2018,07,14,05,31,11.70
2018,07,14,05,32,11.70
2018,07,14,05,33,11.70
2018,07,14,05,34,11.70
2018,07,14,05,35,11.70
2018,07,14,05,36,11.70
2018,07,14,05,37,11.70
2018,07,14,05,38,11.70
2018,07,14,05,39,11.70
2018,07,14,05,40,11.70
2018,07,14,05,41,11.70
2018,07,14,05,42,11.70
2018,07,14,05,43,11.70
2018,07,14,05,44,11.80
2018,07,14,05,45,11.80
2018,07,14,05,46,11.80
2018,07,14,05,47,11.80
2018,07,14,05,48,11.80
2018,07,14,05,49,11.80
2018,07,14,05,50,11.80
2018,07,14,05,51,11.80
2018,07,14,05,52,11.80
2018,07,14,05,53,11.80
2018,07,14,05,54,11.80
2018,07,14,05,55,11.80
2018,07,14,05,56,11.80
2018,07,14,05,57,11.80
2018,07,14,05,58,11.80
2018,07,14,05,59,11.80
2018,07,14,06,00,11.80
2018,07,14,06,01,11.80
2018,07,14,06,02,11.80
2018,07,14,06,03,11.80
2018,07,14,06,04,11.80
2018,07,14,06,05,11.80
2018,07,14,06,06,11.80
2018,07,14,06,07,11.80
2018,07,14,06,08,11.80
2018,07,14,06,09,11.80
2018,07,14,06,10,11.90
2018,07,14,06,11,11.90
2018,07,14,06,12,11.90
2018,07,14,06,13,11.90
2018,07,14,06,14,11.90
2018,07,14,06,15,11.90
2018,07,14,06,16,11.90
2018,07,14,06,17,11.90
2018,07,14,06,18,11.90
2018,07,14,06,19,11.90
2018,07,14,06,20,11.90
2018,07,14,06,21,11.90
2018,07,14,06,22,11.90
2018,07,14,06,23,11.90
2018,07,14,06,24,12.00
2018,07,14,06,25,12.00
2018,07,14,06,26,12.10
2018,07,14,06,27,12.10
2018,07,14,06,28,12.20
2018,07,14,06,29,12.20
2018,07,14,06,30,12.20
2018,07,14,06,31,12.30
2018,07,14,06,32,12.40
2018,07,14,06,33,12.40
2018,07,14,06,34,12.50
2018,07,14,06,35,12.50
2018,07,14,06,36,12.60
2018,07,14,06,37,12.60
2018,07,14,06,38,12.70
2018,07,14,06,39,12.70
2018,07,14,06,40,12.70
2018,07,14,06,41,12.70
2018,07,14,06,42,12.60
2018,07,14,06,43,12.60
2018,07,14,06,44,12.60
2018,07,14,06,45,12.60
2018,07,14,06,46,12.60
2018,07,14,06,47,12.70
2018,07,14,06,48,12.70
2018,07,14,06,49,12.80
2018,07,14,06,50,12.90
2018,07,14,06,51,12.90
2018,07,14,06,52,12.90
2018,07,14,06,53,12.90
2018,07,14,06,54,12.90
2018,07,14,06,55,12.90
2018,07,14,06,56,12.80
2018,07,14,06,57,12.90
2018,07,14,06,58,12.90
2018,07,14,06,59,12.90
2018,07,14,07,00,13.00
2018,07,14,07,01,13.10
2018,07,14,07,02,13.10
2018,07,14,07,03,13.20
2018,07,14,07,04,13.20
2018,07,14,07,05,13.20
2018,07,14,07,06,13.20
2018,07,14,07,07,13.20
2018,07,14,07,08,13.20
2018,07,14,07,09,13.20
2018,07,14,07,10,13.20
2018,07,14,07,11,13.30
2018,07,14,07,12,13.30
2018,07,14,07,13,13.30
2018,07,14,07,14,13.30
2018,07,14,07,15,13.40
2018,07,14,07,16,13.40
2018,07,14,07,17,13.50
2018,07,14,07,18,13.50
2018,07,14,07,19,13.60
2018,07,14,07,20,13.70
2018,07,14,07,21,13.80
2018,07,14,07,22,13.90
2018,07,14,07,23,14.00
2018,07,14,07,24,14.10
2018,07,14,07,25,14.10
2018,07,14,07,26,14.20
2018,07,14,07,27,14.30
2018,07,14,07,28,14.30
2018,07,14,07,29,14.30
2018,07,14,07,30,14.20
2018,07,14,07,31,14.10
2018,07,14,07,32,13.90
2018,07,14,07,33,13.70
2018,07,14,07,34,13.60
2018,07,14,07,35,13.40
2018,07,14,07,36,13.30
2018,07,14,07,37,13.30
2018,07,14,07,38,13.20
2018,07,14,07,39,13.20
2018,07,14,07,40,13.10
2018,07,14,07,41,13.10
2018,07,14,07,42,13.10
2018,07,14,07,43,13.10
2018,07,14,07,44,13.20
2018,07,14,07,45,13.20
2018,07,14,07,46,13.30
2018,07,14,07,47,13.30
2018,07,14,07,48,13.30
2018,07,14,07,49,13.30
2018,07,14,07,50,13.30
2018,07,14,07,51,13.40
2018,07,14,07,52,13.40
2018,07,14,07,53,13.50
2018,07,14,07,54,13.60
2018,07,14,07,55,13.60
2018,07,14,07,56,13.70
2018,07,14,07,57,13.80
2018,07,14,07,58,13.90
2018,07,14,07,59,14.00
2018,07,14,08,00,14.10
2018,07,14,08,01,14.10
2018,07,14,08,02,14.20
2018,07,14,08,03,14.30
2018,07,14,08,04,14.30
2018,07,14,08,05,14.40
2018,07,14,08,06,14.50
2018,07,14,08,07,14.50
2018,07,14,08,08,14.60
2018,07,14,08,09,14.60
2018,07,14,08,10,14.70
2018,07,14,08,11,14.80
2018,07,14,08,12,14.80
2018,07,14,08,13,14.90
2018,07,14,08,14,14.90
2018,07,14,08,15,15.00
2018,07,14,08,16,15.10
2018,07,14,08,17,15.10
2018,07,14,08,18,15.20
2018,07,14,08,19,15.20
2018,07,14,08,20,15.20
2018,07,14,08,21,15.20
2018,07,14,08,22,15.20
2018,07,14,08,23,15.10
2018,07,14,08,24,15.10
2018,07,14,08,25,14.90
2018,07,14,08,26,14.80
2018,07,14,08,27,14.50
2018,07,14,08,28,14.30
2018,07,14,08,29,14.10
2018,07,14,08,30,13.80
2018,07,14,08,31,13.60
2018,07,14,08,32,13.50
2018,07,14,08,33,13.30
2018,07,14,08,34,13.20
2018,07,14,08,35,13.10
2018,07,14,08,36,13.00
2018,07,14,08,37,12.90
2018,07,14,08,38,12.80
2018,07,14,08,39,12.80
2018,07,14,08,40,12.80
2018,07,14,08,41,12.70
2018,07,14,08,42,12.70
2018,07,14,08,43,12.70
2018,07,14,08,44,12.70
2018,07,14,08,45,12.70
2018,07,14,08,46,12.80
2018,07,14,08,47,12.80
2018,07,14,08,48,12.90
2018,07,14,08,49,13.00
2018,07,14,08,50,13.00
2018,07,14,08,51,13.10
2018,07,14,08,52,13.10
2018,07,14,08,53,13.20
2018,07,14,08,54,13.20
2018,07,14,08,55,13.30
2018,07,14,08,56,13.40
2018,07,14,08,57,13.50
2018,07,14,08,58,13.50
2018,07,14,08,59,13.60
2018,07,14,09,00,13.70
2018,07,14,09,01,13.80
2018,07,14,09,02,13.80
2018,07,14,09,03,13.90
2018,07,14,09,04,14.00
2018,07,14,09,05,14.00
2018,07,14,09,06,14.10
2018,07,14,09,07,14.20
2018,07,14,09,08,14.40
2018,07,14,09,09,14.50
2018,07,14,09,10,14.60
2018,07,14,09,11,14.70
2018,07,14,09,12,14.80
2018,07,14,09,13,14.90
2018,07,14,09,14,15.00
2018,07,14,09,15,15.10
2018,07,14,09,16,15.10
2018,07,14,09,17,15.20
2018,07,14,09,18,15.30
2018,07,14,09,19,15.30
2018,07,14,09,20,15.30
2018,07,14,09,21,15.30
2018,07,14,09,22,15.30
2018,07,14,09,23,15.20
2018,07,14,09,24,15.20
2018,07,14,09,25,15.10
2018,07,14,09,26,15.10
2018,07,14,09,27,15.10
2018,07,14,09,28,15.00
2018,07,14,09,29,15.00
2018,07,14,09,30,15.00
2018,07,14,09,31,15.00
2018,07,14,09,32,15.00
2018,07,14,09,33,15.10
2018,07,14,09,34,15.10
2018,07,14,09,35,15.20
2018,07,14,09,36,15.30
2018,07,14,09,37,15.40
2018,07,14,09,38,15.50
2018,07,14,09,39,15.60
2018,07,14,09,40,15.80
2018,07,14,09,41,16.00
2018,07,14,09,42,16.10
2018,07,14,09,43,16.30
2018,07,14,09,44,16.50
2018,07,14,09,45,16.60
2018,07,14,09,46,16.80
2018,07,14,09,47,16.90
2018,07,14,09,48,17.10
2018,07,14,09,49,17.10
2018,07,14,09,50,17.20
2018,07,14,09,51,17.30
2018,07,14,09,52,17.40
2018,07,14,09,53,17.50
2018,07,14,09,54,17.60
2018,07,14,09,55,17.60
2018,07,14,09,56,17.70
2018,07,14,09,57,17.80
2018,07,14,09,58,17.90
2018,07,14,09,59,18.00
2018,07,14,10,00,18.10
2018,07,14,10,01,18.10
2018,07,14,10,02,18.20
2018,07,14,10,03,18.30
2018,07,14,10,04,18.40
2018,07,14,10,05,18.40
2018,07,14,10,06,18.50
2018,07,14,10,07,18.50
2018,07,14,10,08,18.60
2018,07,14,10,09,18.60
2018,07,14,10,10,18.70
2018,07,14,10,11,18.70
2018,07,14,10,12,18.80
2018,07,14,10,13,18.80
2018,07,14,10,14,18.80
2018,07,14,10,15,18.90
2018,07,14,10,16,18.90
2018,07,14,10,17,18.90
2018,07,14,10,18,18.80
2018,07,14,10,19,18.80
2018,07,14,10,20,18.80
2018,07,14,10,21,18.80
2018,07,14,10,22,18.80
2018,07,14,10,23,18.80
2018,07,14,10,24,18.90
2018,07,14,10,25,18.90
2018,07,14,10,26,18.90
2018,07,14,10,27,18.90
2018,07,14,10,28,19.00
2018,07,14,10,29,19.10
2018,07,14,10,30,19.10
2018,07,14,10,31,19.20
2018,07,14,10,32,19.20
2018,07,14,10,33,19.30
2018,07,14,10,34,19.30
2018,07,14,10,35,19.40
2018,07,14,10,36,19.40
2018,07,14,10,37,19.50
2018,07,14,10,38,19.50
2018,07,14,10,39,19.50
2018,07,14,10,40,19.60
2018,07,14,10,41,19.60
2018,07,14,10,42,19.60
2018,07,14,10,43,19.60
2018,07,14,10,44,19.60
2018,07,14,10,45,19.60
2018,07,14,10,46,19.70
2018,07,14,10,47,19.70
2018,07,14,10,48,19.70
2018,07,14,10,49,19.80
2018,07,14,10,50,19.80
2018,07,14,10,51,19.90
2018,07,14,10,52,19.90
2018,07,14,10,53,20.00
2018,07,14,10,54,20.00
2018,07,14,10,55,20.10
2018,07,14,10,56,20.10
2018,07,14,10,57,20.10
2018,07,14,10,58,20.20
2018,07,14,10,59,20.20
2018,07,14,11,00,20.20
2018,07,14,11,01,20.20
2018,07,14,11,02,20.30
2018,07,14,11,03,20.30
2018,07,14,11,04,20.30
2018,07,14,11,05,20.30
2018,07,14,11,06,20.40
2018,07,14,11,07,20.40
2018,07,14,11,08,20.40
2018,07,14,11,09,20.50
2018,07,14,11,10,20.50
2018,07,14,11,11,20.50
2018,07,14,11,12,20.60
2018,07,14,11,13,20.60
2018,07,14,11,14,20.60
2018,07,14,11,15,20.60
2018,07,14,11,16,20.60
2018,07,14,11,17,20.60
2018,07,14,11,18,20.60
2018,07,14,11,19,20.70
2018,07,14,11,20,20.70
2018,07,14,11,21,20.70
2018,07,14,11,22,20.70
2018,07,14,11,23,20.70
2018,07,14,11,24,20.70
2018,07,14,11,25,20.70
2018,07,14,11,26,20.80
2018,07,14,11,27,20.80
2018,07,14,11,28,20.80
2018,07,14,11,29,20.90
2018,07,14,11,30,20.90
2018,07,14,11,31,20.90
2018,07,14,11,32,21.00
2018,07,14,11,33,21.00
2018,07,14,11,34,21.10
2018,07,14,11,35,21.10
2018,07,14,11,36,21.10
2018,07,14,11,37,21.20
2018,07,14,11,38,21.20
2018,07,14,11,39,21.20
2018,07,14,11,40,21.20
2018,07,14,11,41,21.20
2018,07,14,11,42,21.30
2018,07,14,11,43,21.30
2018,07,14,11,44,21.30
2018,07,14,11,45,21.30
2018,07,14,11,46,21.30
2018,07,14,11,47,21.30
2018,07,14,11,48,21.30
2018,07,14,11,49,21.40
2018,07,14,11,50,21.40
2018,07,14,11,51,21.40
2018,07,14,11,52,21.40
2018,07,14,11,53,21.40
2018,07,14,11,54,21.40
2018,07,14,11,55,21.40
2018,07,14,11,56,21.40
2018,07,14,11,57,21.40
2018,07,14,11,58,21.40
2018,07,14,11,59,21.40
2018,07,14,12,00,21.50
2018,07,14,12,01,21.50
2018,07,14,12,02,21.50
2018,07,14,12,03,21.50
2018,07,14,12,04,21.50
2018,07,14,12,05,21.60
2018,07,14,12,06,21.60
2018,07,14,12,07,21.60
2018,07,14,12,08,21.60
2018,07,14,12,09,21.60
2018,07,14,12,10,21.60
2018,07,14,12,11,21.70
2018,07,14,12,12,21.70
2018,07,14,12,13,21.70
2018,07,14,12,14,21.80
2018,07,14,12,15,21.80
2018,07,14,12,16,21.80
2018,07,14,12,17,21.80
2018,07,14,12,18,21.90
2018,07,14,12,19,21.90
2018,07,14,12,20,22.00
2018,07,14,12,21,22.00
2018,07,14,12,22,22.10
2018,07,14,12,23,22.10
2018,07,14,12,24,22.20
2018,07,14,12,25,22.20
2018,07,14,12,26,22.30
2018,07,14,12,27,22.30
2018,07,14,12,28,22.30
2018,07,14,12,29,22.40
2018,07,14,12,30,22.40
2018,07,14,12,31,22.50
2018,07,14,12,32,22.50
2018,07,14,12,33,22.60
2018,07,14,12,34,22.60
2018,07,14,12,35,22.60
2018,07,14,12,36,22.70
2018,07,14,12,37,22.70
2018,07,14,12,38,22.80
2018,07,14,12,39,22.80
2018,07,14,12,40,22.80
2018,07,14,12,41,22.90
2018,07,14,12,42,22.90
2018,07,14,12,43,23.00
2018,07,14,12,44,23.00
2018,07,14,12,45,23.10
2018,07,14,12,46,23.10
2018,07,14,12,47,23.10
2018,07,14,12,48,23.10
2018,07,14,12,49,23.20
2018,07,14,12,50,23.20
2018,07,14,12,51,23.20
2018,07,14,12,52,23.20
2018,07,14,12,53,23.20
2018,07,14,12,54,23.20
2018,07,14,12,55,23.30
2018,07,14,12,56,23.30
2018,07,14,12,57,23.30
2018,07,14,12,58,23.30
2018,07,14,12,59,23.30
2018,07,14,13,00,23.30
2018,07,14,13,01,23.30
2018,07,14,13,02,23.30
2018,07,14,13,03,23.20
2018,07,14,13,04,23.20
2018,07,14,13,05,23.20
2018,07,14,13,06,23.30
2018,07,14,13,07,23.30
2018,07,14,13,08,23.30
2018,07,14,13,09,23.30
2018,07,14,13,10,23.30
2018,07,14,13,11,23.30
2018,07,14,13,12,23.40
2018,07,14,13,13,23.40
2018,07,14,13,14,23.40
2018,07,14,13,15,23.50
2018,07,14,13,16,23.50
2018,07,14,13,17,23.50
2018,07,14,13,18,23.50
2018,07,14,13,19,23.60
2018,07,14,13,20,23.60
2018,07,14,13,21,23.60
2018,07,14,13,22,23.60
2018,07,14,13,23,23.70
2018,07,14,13,24,23.70
2018,07,14,13,25,23.70
2018,07,14,13,26,23.70
2018,07,14,13,27,23.70
2018,07,14,13,28,23.70
2018,07,14,13,29,23.70
2018,07,14,13,30,23.80
2018,07,14,13,31,23.80
2018,07,14,13,32,23.80
2018,07,14,13,33,23.80
2018,07,14,13,34,23.80
2018,07,14,13,35,23.80
2018,07,14,13,36,23.80
2018,07,14,13,37,23.80
2018,07,14,13,38,23.80
2018,07,14,13,39,23.80
2018,07,14,13,40,23.80
2018,07,14,13,41,23.80
2018,07,14,13,42,23.80
2018,07,14,13,43,23.80
2018,07,14,13,44,23.80
2018,07,14,13,45,23.80
2018,07,14,13,46,23.80
2018,07,14,13,47,23.80
2018,07,14,13,48,23.80
2018,07,14,13,49,23.80
2018,07,14,13,50,23.80
2018,07,14,13,51,23.80
2018,07,14,13,52,23.80
2018,07,14,13,53,23.80
2018,07,14,13,54,23.80
2018,07,14,13,55,23.80
2018,07,14,13,56,23.90
2018,07,14,13,57,23.90
2018,07,14,13,58,23.90
2018,07,14,13,59,23.90
2018,07,14,14,00,23.90
2018,07,14,14,01,23.90
2018,07,14,14,02,23.90
2018,07,14,14,03,23.90
2018,07,14,14,04,23.90
2018,07,14,14,05,23.90
2018,07,14,14,06,23.90
2018,07,14,14,07,23.80
2018,07,14,14,08,23.80
2018,07,14,14,09,23.80
2018,07,14,14,10,23.80
2018,07,14,14,11,23.80
2018,07,14,14,12,23.80
2018,07,14,14,13,23.80
2018,07,14,14,14,23.80
2018,07,14,14,15,23.70
2018,07,14,14,16,23.70
2018,07,14,14,17,23.70
2018,07,14,14,18,23.70
2018,07,14,14,19,23.70
2018,07,14,14,20,23.70
2018,07,14,14,21,23.60
2018,07,14,14,22,23.60
2018,07,14,14,23,23.60
2018,07,14,14,24,23.50
2018,07,14,14,25,23.50
2018,07,14,14,26,23.40
2018,07,14,14,27,23.40
2018,07,14,14,28,23.40
2018,07,14,14,29,23.40
2018,07,14,14,30,23.40
2018,07,14,14,31,23.40
2018,07,14,14,32,23.40
2018,07,14,14,33,23.40
2018,07,14,14,34,23.40
2018,07,14,14,35,23.40
2018,07,14,14,36,23.40
2018,07,14,14,37,23.40
2018,07,14,14,38,23.40
2018,07,14,14,39,23.40
2018,07,14,14,40,23.40
2018,07,14,14,41,23.40
2018,07,14,14,42,23.40
2018,07,14,14,43,23.40
2018,07,14,14,44,23.40
2018,07,14,14,45,23.50
2018,07,14,14,46,23.60
2018,07,14,14,47,23.60
2018,07,14,14,48,23.60
2018,07,14,14,49,23.50
2018,07,14,14,50,23.10
2018,07,14,14,51,22.60
2018,07,14,14,52,22.00
2018,07,14,14,53,21.50
2018,07,14,14,54,21.20
2018,07,14,14,55,21.00
2018,07,14,14,56,20.90
2018,07,14,14,57,20.80
2018,07,14,14,58,20.80
2018,07,14,14,59,20.80
2018,07,14,15,00,20.80
2018,07,14,15,01,20.80
2018,07,14,15,02,20.70
2018,07,14,15,03,20.70
2018,07,14,15,04,20.80
2018,07,14,15,05,20.80
2018,07,14,15,06,20.80
2018,07,14,15,07,20.80
2018,07,14,15,08,20.80
2018,07,14,15,09,20.80
2018,07,14,15,10,20.80
2018,07,14,15,11,20.80
2018,07,14,15,12,20.80
2018,07,14,15,13,20.90
2018,07,14,15,14,21.00
2018,07,14,15,15,21.00
2018,07,14,15,16,21.10
2018,07,14,15,17,21.10
2018,07,14,15,18,21.20
2018,07,14,15,19,21.20
2018,07,14,15,20,21.20
2018,07,14,15,21,21.30
2018,07,14,15,22,21.30
2018,07,14,15,23,21.30
2018,07,14,15,24,21.40
2018,07,14,15,25,21.40
2018,07,14,15,26,21.50
2018,07,14,15,27,21.50
2018,07,14,15,28,21.60
2018,07,14,15,29,21.70
2018,07,14,15,30,21.80
2018,07,14,15,31,21.90
2018,07,14,15,32,22.00
2018,07,14,15,33,22.10
2018,07,14,15,34,22.20
2018,07,14,15,35,22.30
2018,07,14,15,36,22.40
2018,07,14,15,37,22.50
2018,07,14,15,38,22.70
2018,07,14,15,39,22.80
2018,07,14,15,40,23.10
2018,07,14,15,41,23.30
2018,07,14,15,42,23.50
2018,07,14,15,43,23.70
2018,07,14,15,44,23.80
2018,07,14,15,45,23.80
2018,07,14,15,46,23.80
2018,07,14,15,47,23.90
2018,07,14,15,48,23.80
2018,07,14,15,49,23.50
2018,07,14,15,50,23.30
2018,07,14,15,51,23.00
2018,07,14,15,52,22.70
2018,07,14,15,53,22.50
2018,07,14,15,54,22.40
2018,07,14,15,55,22.30
2018,07,14,15,56,22.30
2018,07,14,15,57,22.20
2018,07,14,15,58,22.20
2018,07,14,15,59,22.20
2018,07,14,16,00,22.20
2018,07,14,16,01,22.20
2018,07,14,16,02,22.20
2018,07,14,16,03,22.20
2018,07,14,16,04,22.20
2018,07,14,16,05,22.30
2018,07,14,16,06,22.30
2018,07,14,16,07,22.30
2018,07,14,16,08,22.30
2018,07,14,16,09,22.30
2018,07,14,16,10,22.30
2018,07,14,16,11,22.30
2018,07,14,16,12,22.20
2018,07,14,16,13,22.10
2018,07,14,16,14,22.10
2018,07,14,16,15,22.10
2018,07,14,16,16,22.10
2018,07,14,16,17,22.10
2018,07,14,16,18,22.10
2018,07,14,16,19,22.00
2018,07,14,16,20,21.90
2018,07,14,16,21,21.80
2018,07,14,16,22,21.70
2018,07,14,16,23,21.60
2018,07,14,16,24,21.60
2018,07,14,16,25,21.60
2018,07,14,16,26,21.60
2018,07,14,16,27,21.70
2018,07,14,16,28,21.60
2018,07,14,16,29,21.50
2018,07,14,16,30,21.40
2018,07,14,16,31,21.30
2018,07,14,16,32,21.10
2018,07,14,16,33,20.90
2018,07,14,16,34,20.70
2018,07,14,16,35,20.40
2018,07,14,16,36,20.10
2018,07,14,16,37,19.90
2018,07,14,16,38,19.70
2018,07,14,16,39,19.60
2018,07,14,16,40,19.40
2018,07,14,16,41,19.30
2018,07,14,16,42,19.20
2018,07,14,16,43,19.20
2018,07,14,16,44,19.10
2018,07,14,16,45,18.90
2018,07,14,16,46,18.80
2018,07,14,16,47,18.60
2018,07,14,16,48,18.50
2018,07,14,16,49,18.50
2018,07,14,16,50,18.50
2018,07,14,16,51,18.50
2018,07,14,16,52,18.50
2018,07,14,16,53,18.50
2018,07,14,16,54,18.40
2018,07,14,16,55,18.30
2018,07,14,16,56,18.10
2018,07,14,16,57,18.00
2018,07,14,16,58,17.80
2018,07,14,16,59,17.60
2018,07,14,17,00,17.50
2018,07,14,17,01,17.40
2018,07,14,17,02,17.40
2018,07,14,17,03,17.40
2018,07,14,17,04,17.30
2018,07,14,17,05,17.30
2018,07,14,17,06,17.30
2018,07,14,17,07,17.30
2018,07,14,17,08,17.40
2018,07,14,17,09,17.40
2018,07,14,17,10,17.50
2018,07,14,17,11,17.70
2018,07,14,17,12,17.80
2018,07,14,17,13,17.90
2018,07,14,17,14,18.00
2018,07,14,17,15,18.10
2018,07,14,17,16,18.20
2018,07,14,17,17,18.20
2018,07,14,17,18,18.20
2018,07,14,17,19,18.10